C/2022 S4 ( Lemmon )

Japanese version
Home page
Updated on December 1, 2023

---------------------------------------------------------------------

* Profile

Discovery Date September 19, 2022
Magnitude 20.6 mag
Discoverer Mt. Lemmon

* Pictures

* Orbital Elements

Epoch 2023 Sept. 13.0 TT = JDT 2460200.5
T 2024 July 18.41639 TT                                 Rudenko
q   2.7632926            (2000.0)            P               Q
z  +0.0003092      Peri.  268.47236     +0.14583880     -0.76047142
 +/-0.0000049      Node   220.17398     +0.26946994     -0.58490156
e   0.9991457      Incl.  101.21908     -0.95190178     -0.28208754
>From 281 observations 2022 Aug. 26-2023 Sept. 27, mean residual 0".4.

* Finding Charts

* Magnitudes Graph

        m1 = 9.0 + 5 log d + 8.5 log r

---------------------------------------------------------------------

The orbital elements are published on M.P.E.C. 2023-S260.
The charts are made with StellaNavigator Ver.10 (AstroArts).
The magnitudes graphs are made with Comet for Windows.

---------------------------------------------------------------------

Copyright(C) Seiichi Yoshida (comet@aerith.net). All rights reserved.